Regional Weather Roundup
Issued by NWS

Home | Current Version | Previous Version | Graphics & Text | Print | Product List | Glossary On
Versions: 1 2 3 4 5 6 7 8 9 10 11 12 13 14 15 16 17 18 19 20 21 22 23 24 25 26 27 28 29 30 31 32 33 34 35 36 37 38 39 40 41 42 43 44 45 46 47 48 49 50
000
ASUS45 KSLC 112110
RWRUT

UTAH REGIONAL WEATHER ROUNDUP
NATIONAL WEATHER SERVICE SALT LAKE CITY UT
200 PM MST THU FEB 11 2016

UTZ001>011-023>025-112200-

NORTHERN UTAH

CITY           SKY/WX    TMP DP  RH WIND       PRES   REMARKS
BRIGHAM CITY   CLOUDY    28  26  93 CALM      30.47S
HILL AFB       NOT AVBL
LOGAN          CLOUDY    23  22  96 W3        30.45F FOG
OGDEN            N/A     29  26  89 NW5       30.43F FOG     WCI  24
PROVO AIRPORT  FOG       25  21  86 CALM      30.43F VSB 1/4
SALT LAKE CITY CLOUDY    32  27  81 CALM      30.45F HAZE
VERNAL         SUNNY     29  19  66 S5        30.38F HAZE    WCI  24
WENDOVER       CLOUDY    30  25  80 SE3       30.45F
HEBER CITY       N/A     34  21  60 CALM      30.37F
WEST JORDAN    CLOUDY    32  28  86 NW6       30.44F WCI  26

$$

UTZ012>022-026-027-112200-

SOUTHERN/CENTRAL UTAH

CITY           SKY/WX    TMP DP  RH WIND       PRES   REMARKS
BLANDING         N/A     43  27  52 CALM      30.43F
BRYCE CANYON     N/A     44  20  38 CALM      30.40F
CEDAR CITY       N/A     42  27  55 CALM      30.35F
DELTA            N/A     20  19  96 CALM      30.42F
HANKSVILLE       N/A     45  32  61 W3        30.41F
MILFORD          N/A     20  17  88 S5        30.39F WCI  13
MOAB/CYNLANDS    N/A     40  29  64 NW7       30.38F
PRICE            N/A     41  26  55 SE3       30.37F
ST GEORGE        N/A     59  27  29 S3        30.29F
KANAB            N/A     66  27  22 S3        30.33F

$$

REGIONAL REPORTS     COLORADO/ARIZONA

CITY           SKY/WX    TMP DP  RH WIND       PRES   REMARKS
CRAIG, CO      MIX PCPN  28  21  75 S3        30.37F
GRAND JUNCTION SUNNY     40  24  53 N5        30.37F
RIFLE          SUNNY     39  17  41 CALM      30.38F
MONTROSE       SUNNY     45  23  42 CALM      30.38F
CORTEZ         CLOUDY    48  22  35 CALM      30.35F
PAGE, AZ         N/A     53  30  41 NE7       30.34F
GRAND CANYON     N/A     65  20  17 VRB6      30.35F
KINGMAN          N/A     72  23  16 N6        30.23F
FLAGSTAFF        N/A     58  16  19 E6        30.36F

$$

REGIONAL REPORTS    NEVADA/IDAHO/WYOMING

CITY           SKY/WX    TMP DP  RH WIND       PRES   REMARKS
LAS VEGAS, NV    N/A     69  22  16 VRB3      30.18F
ELY              N/A     39  23  52 S10       30.35F WCI  32
ELKO             N/A     35  22  58 NE6       30.38F WCI  30
POCATELLO, ID  CLOUDY    34  25  69 E7        30.38F WCI  28
BURLEY           N/A     43  31  62 NE13      30.33F
EVANSTON, WY   CLOUDY    40  21  46 SW9       30.38F WCI  34
ROCK SPRINGS   CLOUDY    42  22  44 SW22      30.33F
KEMMERER       CLOUDY    41  23  48 W10       30.37F

$$



USA.gov is the U.S. government's official web portal to all federal, state and local government web resources and services.